TimeMST,TemperatureF,Dew PointF,Humidity,Sea Level PressureIn,VisibilityMPH,Wind Direction,Wind SpeedMPH,Gust SpeedMPH,PrecipitationIn,Events,Conditions,WindDirDegrees,DateUTC
12:15 AM,62.6,44.6,52,30.15,10.0,South,4.6,-,N/A,,Clear,170,2013-09-18 07:15:00
12:35 AM,62.6,44.6,52,30.15,10.0,SSE,5.8,-,N/A,,Clear,150,2013-09-18 07:35:00
12:55 AM,57.2,46.4,67,30.15,10.0,SE,5.8,-,N/A,,Clear,140,2013-09-18 07:55:00
1:15 AM,57.2,46.4,67,30.14,10.0,SSE,4.6,-,N/A,,Clear,150,2013-09-18 08:15:00
1:35 AM,57.2,46.4,67,30.14,10.0,SE,5.8,-,N/A,,Clear,140,2013-09-18 08:35:00
1:55 AM,57.2,44.6,63,30.14,10.0,SSE,5.8,-,N/A,,Clear,160,2013-09-18 08:55:00
2:15 AM,55.4,44.6,67,30.13,10.0,SSE,5.8,-,N/A,,Clear,160,2013-09-18 09:15:00
2:35 AM,53.6,44.6,72,30.12,10.0,South,9.2,-,N/A,,Clear,190,2013-09-18 09:35:00
2:55 AM,59.0,41.0,51,30.12,10.0,South,6.9,-,N/A,,Clear,190,2013-09-18 09:55:00
3:15 AM,59.0,39.2,48,30.12,10.0,South,9.2,-,N/A,,Clear,190,2013-09-18 10:15:00
3:35 AM,60.8,39.2,45,30.11,10.0,South,8.1,-,N/A,,Clear,180,2013-09-18 10:35:00
3:55 AM,60.8,39.2,45,30.11,10.0,South,8.1,-,N/A,,Clear,190,2013-09-18 10:55:00
4:15 AM,60.8,39.2,45,30.11,10.0,South,6.9,-,N/A,,Clear,190,2013-09-18 11:15:00
4:35 AM,53.6,41.0,62,30.12,10.0,SE,5.8,-,N/A,,Clear,140,2013-09-18 11:35:00
4:55 AM,51.8,41.0,67,30.12,10.0,SSE,6.9,-,N/A,,Clear,150,2013-09-18 11:55:00
5:15 AM,51.8,41.0,67,30.12,10.0,SSE,6.9,-,N/A,,Clear,150,2013-09-18 12:15:00
5:35 AM,50.0,41.0,71,30.12,10.0,South,6.9,-,N/A,,Clear,180,2013-09-18 12:35:00
5:55 AM,59.0,39.2,48,30.12,10.0,South,8.1,-,N/A,,Clear,190,2013-09-18 12:55:00
6:15 AM,59.0,39.2,48,30.12,10.0,South,8.1,-,N/A,,Clear,190,2013-09-18 13:15:00
6:35 AM,57.2,39.2,51,30.13,10.0,SSE,8.1,-,N/A,,Clear,160,2013-09-18 13:35:00
6:55 AM,59.0,41.0,51,30.13,10.0,SSE,6.9,-,N/A,,Clear,160,2013-09-18 13:55:00
7:15 AM,62.6,42.8,48,30.13,10.0,SSE,8.1,-,N/A,,Partly Cloudy,150,2013-09-18 14:15:00
7:35 AM,62.6,42.8,48,30.14,10.0,SSE,10.4,-,N/A,,Clear,150,2013-09-18 14:35:00
7:55 AM,64.4,44.6,49,30.14,10.0,SSE,11.5,-,N/A,,Clear,150,2013-09-18 14:55:00
8:15 AM,66.2,42.8,43,30.14,10.0,SSE,11.5,-,N/A,,Partly Cloudy,160,2013-09-18 15:15:00
8:35 AM,68.0,37.4,33,30.14,10.0,South,16.1,21.9,N/A,,Clear,170,2013-09-18 15:35:00
8:55 AM,68.0,35.6,30,30.15,10.0,South,16.1,21.9,N/A,,Clear,180,2013-09-18 15:55:00
9:15 AM,68.0,33.8,28,30.15,10.0,South,18.4,24.2,N/A,,Clear,170,2013-09-18 16:15:00
9:35 AM,69.8,33.8,27,30.16,10.0,South,15.0,23.0,N/A,,Clear,170,2013-09-18 16:35:00
9:55 AM,71.6,32.0,23,30.16,10.0,South,17.3,24.2,N/A,,Clear,170,2013-09-18 16:55:00
10:15 AM,71.6,28.4,20,30.16,10.0,South,16.1,31.1,N/A,,Clear,180,2013-09-18 17:15:00
10:35 AM,71.6,32.0,23,30.16,10.0,South,15.0,26.5,N/A,,Clear,170,2013-09-18 17:35:00
10:55 AM,71.6,32.0,23,30.16,10.0,SSW,19.6,27.6,N/A,,Clear,200,2013-09-18 17:55:00
11:15 AM,71.6,33.8,25,30.15,10.0,SSW,21.9,27.6,N/A,,Clear,200,2013-09-18 18:15:00
11:35 AM,73.4,32.0,22,30.15,10.0,SSW,18.4,33.4,N/A,,Clear,200,2013-09-18 18:35:00
11:55 AM,73.4,35.6,25,30.15,10.0,South,16.1,29.9,N/A,,Clear,180,2013-09-18 18:55:00
12:15 PM,73.4,37.4,27,30.15,10.0,SSW,18.4,27.6,N/A,,Clear,200,2013-09-18 19:15:00
12:35 PM,73.4,39.2,29,30.15,10.0,South,16.1,25.3,N/A,,Clear,190,2013-09-18 19:35:00
12:55 PM,73.4,39.2,29,30.15,10.0,South,20.7,26.5,N/A,,Clear,190,2013-09-18 19:55:00
1:15 PM,73.4,37.4,27,30.15,10.0,South,17.3,29.9,N/A,,Clear,190,2013-09-18 20:15:00
1:35 PM,73.4,37.4,27,30.14,10.0,South,17.3,27.6,N/A,,Clear,180,2013-09-18 20:35:00
1:55 PM,75.2,35.6,24,30.13,10.0,SSW,17.3,29.9,N/A,,Clear,200,2013-09-18 20:55:00
2:15 PM,73.4,35.6,25,30.13,10.0,South,19.6,29.9,N/A,,Clear,190,2013-09-18 21:15:00
2:35 PM,75.2,35.6,24,30.12,10.0,South,20.7,27.6,N/A,,Clear,190,2013-09-18 21:35:00
2:55 PM,73.4,33.8,23,30.12,10.0,SSW,20.7,33.4,N/A,,Clear,210,2013-09-18 21:55:00
3:15 PM,73.4,32.0,22,30.11,10.0,South,21.9,29.9,N/A,,Clear,180,2013-09-18 22:15:00
3:35 PM,75.2,32.0,21,30.11,10.0,SW,17.3,24.2,N/A,,Clear,220,2013-09-18 22:35:00
3:55 PM,73.4,32.0,22,30.11,10.0,SW,17.3,24.2,N/A,,Clear,230,2013-09-18 22:55:00
4:15 PM,73.4,32.0,22,30.11,10.0,SSW,18.4,24.2,N/A,,Clear,210,2013-09-18 23:15:00
4:35 PM,73.4,32.0,22,30.11,10.0,SW,20.7,26.5,N/A,,Clear,220,2013-09-18 23:35:00
4:55 PM,71.6,30.2,22,30.12,10.0,SSW,16.1,26.5,N/A,,Clear,200,2013-09-18 23:55:00
5:15 PM,71.6,32.0,23,30.12,10.0,SW,12.7,21.9,N/A,,Clear,230,2013-09-19 00:15:00
5:35 PM,71.6,32.0,23,30.12,10.0,SW,12.7,20.7,N/A,,Clear,230,2013-09-19 00:35:00
5:55 PM,69.8,30.2,23,30.12,10.0,SW,10.4,18.4,N/A,,Clear,220,2013-09-19 00:55:00
6:15 PM,68.0,32.0,26,30.13,10.0,SW,5.8,-,N/A,,Clear,230,2013-09-19 01:15:00
6:35 PM,66.2,32.0,28,30.13,10.0,SW,8.1,-,N/A,,Clear,220,2013-09-19 01:35:00
6:55 PM,64.4,32.0,30,30.13,10.0,SSW,9.2,-,N/A,,Clear,210,2013-09-19 01:55:00
7:15 PM,62.6,32.0,32,30.14,10.0,SSW,5.8,-,N/A,,Clear,200,2013-09-19 02:15:00
7:35 PM,60.8,32.0,34,30.14,10.0,South,5.8,-,N/A,,Clear,170,2013-09-19 02:35:00
7:55 PM,59.0,33.8,39,30.15,10.0,SSE,6.9,-,N/A,,Clear,160,2013-09-19 02:55:00
8:15 PM,55.4,33.8,44,30.15,10.0,South,6.9,-,N/A,,Clear,170,2013-09-19 03:15:00
8:35 PM,53.6,37.4,54,30.15,10.0,SSE,4.6,-,N/A,,Clear,160,2013-09-19 03:35:00
8:55 PM,53.6,33.8,47,30.16,10.0,South,5.8,-,N/A,,Clear,170,2013-09-19 03:55:00
9:15 PM,53.6,35.6,51,30.16,10.0,South,5.8,-,N/A,,Clear,180,2013-09-19 04:15:00
9:35 PM,50.0,35.6,58,30.16,10.0,South,4.6,-,N/A,,Clear,170,2013-09-19 04:35:00
9:55 PM,53.6,33.8,47,30.17,10.0,SSE,8.1,-,N/A,,Clear,160,2013-09-19 04:55:00
10:15 PM,50.0,35.6,58,30.16,10.0,SSE,10.4,-,N/A,,Clear,150,2013-09-19 05:15:00
10:35 PM,50.0,35.6,58,30.16,10.0,SSE,6.9,-,N/A,,Clear,160,2013-09-19 05:35:00
10:55 PM,50.0,35.6,58,30.16,10.0,SSE,6.9,-,N/A,,Clear,160,2013-09-19 05:55:00
11:15 PM,50.0,35.6,58,30.16,10.0,SSE,6.9,-,N/A,,Clear,150,2013-09-19 06:15:00
11:35 PM,50.0,33.8,54,30.17,10.0,SSE,8.1,-,N/A,,Clear,160,2013-09-19 06:35:00
11:55 PM,48.2,35.6,62,30.17,10.0,SSE,8.1,-,N/A,,Clear,160,2013-09-19 06:55:00